Regional Weather Roundup
Issued by NWS

Home | Current Version | Previous Version | Graphics & Text | Print | Product List | Glossary On
Versions: 1 2 3 4 5 6 7 8 9 10 11 12 13 14 15 16 17 18 19 20 21 22 23 24 25 26 27 28 29 30 31 32 33 34 35 36 37 38 39 40 41 42 43 44 45 46 47 48 49 50
000
ASUS43 KBIS 240010
RWRND

NORTH DAKOTA REGIONAL WEATHER ROUNDUP
NATIONAL WEATHER SERVICE BISMARCK ND
600 PM CST THU NOV 23 2017

NOTE: "FAIR" INDICATES FEW OR NO CLOUDS BELOW 12,000 FEET WITH NO
SIGNIFICANT WEATHER AND/OR OBSTRUCTIONS TO VISIBILITY.


NDZ001>003-009>011-017-240100-
NORTHWEST NORTH DAKOTA

CITY           SKY/WX    TMP DP  RH WIND       PRES   REMARKS
WILLISTON      CLEAR     56  37  49 SW12      29.45F
6HR MIN TEMP:  51; 6HR MAX TEMP:  68;

MINOT          CLEAR     53  38  56 SW12      29.39F
MINOT AFB      CLEAR     56  38  51 W15       29.37F
$$

NDZ018>021-031>035-040>046-240100-
SOUTHWEST NORTH DAKOTA

CITY           SKY/WX    TMP DP  RH WIND       PRES   REMARKS
BISMARCK       CLOUDY    59  38  45 SW5       29.52F
6HR MIN TEMP:  54; 6HR MAX TEMP:  74;

DICKINSON      CLEAR     59  36  42 W14       29.54F
GARRISON         N/A     52  38  58 W15       29.46F
6HR MIN TEMP:  46; 6HR MAX TEMP:  62; 6HR PCP:  0.01;

HETTINGER ARPT CLEAR     58  33  39 SW12      29.62F
$$

NDZ004>008-012>016-024-026-027-054-240100-
NORTHEAST NORTH DAKOTA

CITY           SKY/WX    TMP DP  RH WIND       PRES   REMARKS
GRAND FORKS    MOCLDY    38  32  79 S15       29.46F
GRND FRKS AFB  MOCLDY    38  33  81 S8        29.45F
DEVILS LAKE    CLEAR     44  37  76 SW15      29.41F
$$

NDZ022-023-025-028>030-036>039-047>053-240100-
SOUTHEAST NORTH DAKOTA

CITY           SKY/WX    TMP DP  RH WIND       PRES   REMARKS
FARGO          CLEAR     44  31  60 S16       29.54F
6HR MIN TEMP:  34; 6HR MAX TEMP:  47;

JAMESTOWN      PTCLDY    50  39  66 S13       29.50F
$$





USA.gov is the U.S. government's official web portal to all federal, state and local government web resources and services.